Home   Weather   Río Gallegos   Past weeks
Flag for Argentina

Past Weather in Río Gallegos, Santa Cruz, Argentina — Yesterday and Last 2 Weeks

Now
48 °F

Rain. Overcast.


Feels Like: 45 °F
Forecast: 52 / 48 °F
Wind: 8 mph from Northwest

Location: Rio Gallegos Aerodrome

Current Time: May 23, 2019 at 12:10:50 am

Latest Report: May 22, 2019 at 11:00 pm


Visibility: N/A

Pressure: 29.59 "Hg

Humidity: 94%

Dew Point: 46 °F

Location of Río GallegosLocation

Past Weather in Río Gallegos — Graph

°F

Río Gallegos Temperature Yesterday

Maximum temperature yesterday: 48 °F (at 12:00 am)
Minimum temperature yesterday: 46 °F (at 5:00 am)
Average temperature yesterday: 47 °F

High & Low Weather Summary for the Past Weeks

 TemperatureHumidityPressure
High61 °F (May 16, 3:00 pm)100% (May 22, 2:00 pm)30.07 "Hg (May 22, 2:00 pm)
Low28 °F (May 8, 8:00 am)31% (May 13, 4:00 pm)28.77 "Hg (May 12, 5:00 am)
Average44 °F67%29.58 "Hg
* Reported May 7 10:00 pm — May 22 10:20 pm, Río Gallegos. Weather by CustomWeather, © 2019

Note: Actual official high and low records may vary slightly from our data, if they occured in-between our weather recording intervals... More about our weather records

Advertising

Río Gallegos Weather History for the Previous 24 Hours

Scroll right to see more
 ConditionsComfort  
Time TempWeatherWind HumidityBarometerVisibility
10:20 pm
Wed, May 22
48 °FRain. Mostly cloudy.7 mph76%29.74 "HgN/A
10:00 pm48 °FLight rain. Passing clouds.7 mph87%29.59 "HgN/A
9:00 pm48 °FDrizzle. Mostly cloudy.5 mph87%29.59 "HgN/A
8:00 pm46 °FDrizzle. Mostly cloudy.No wind100%29.59 "HgN/A
7:00 pm46 °FLight rain. Mostly cloudy.No wind100%29.59 "HgN/A
6:00 pm46 °FLight rain. Passing clouds.2 mph100%29.59 "HgN/A
5:00 pm48 °FLight rain. Partly sunny.2 mph94%29.59 "HgN/A
4:00 pm48 °FLight rain. Broken clouds.1 mph94%29.59 "HgN/A
3:00 pm48 °FRain. More clouds than sun.3 mph87%29.62 "Hg5 mi
2:00 pm46 °FFog.7 mph100%29.65 "Hg3 mi
1:00 pm48 °FRain. More clouds than sun.8 mph82%29.65 "Hg3 mi
12:00 pm46 °FRain. Broken clouds.7 mph93%29.65 "HgN/A
11:00 am46 °FRain. Broken clouds.7 mph93%29.68 "HgN/A
10:00 am46 °FRain. Broken clouds.8 mph87%29.68 "HgN/A
9:00 am48 °FLight rain. Passing clouds.8 mph76%29.68 "HgN/A
8:00 am46 °FLight rain. Passing clouds.7 mph82%29.68 "HgN/A
7:00 am46 °FPartly cloudy.7 mph76%29.68 "HgN/A
6:00 am46 °FPartly cloudy.6 mph76%29.68 "HgN/A
5:00 am46 °FPartly cloudy.6 mph76%29.68 "HgN/A
4:00 am48 °FPassing clouds.6 mph76%29.68 "HgN/A
3:00 am48 °FPassing clouds.8 mph76%29.71 "HgN/A
2:00 am48 °FPassing clouds.8 mph76%29.71 "HgN/A
1:00 am48 °FPassing clouds.12 mph76%29.71 "HgN/A
12:00 am48 °FPassing clouds.12 mph76%29.74 "HgN/A
Weather by CustomWeather, © 2019

See weather overview